Weather History for Henderson, KY

Change the Weather History Date:

Thursday, December 19, 2013

  Actual Average Record
Temperature  
Mean Temperature 49 °F -  
Max Temperature 59 °F 45 °F 66 °F (1976)
Min Temperature 39 °F 27 °F -4 °F (1963)
Degree Days  
Heating Degree Days 16    
Moisture  
Dew Point 39 °F    
Average Humidity 63    
Maximum Humidity 72    
Minimum Humidity 54    
Precipitation  
Precipitation 0.00 in - - ()
Sea Level Pressure  
Sea Level Pressure 30.02 in    
Wind  
Wind Speed 11 mph (SSW)    
Max Wind Speed 22 mph    
Max Gust Speed 26 mph    
Visibility 10 miles    
Events      
Averages and records for this station are not official NWS values.
T = Trace of Precipitation, MM = Missing Value Source: NWS Daily Summary

Daily Weather History Graph

Daily Weather History Graph

Search for Another Location

Airport:

Trip Planner

Search our weather history database for the weather conditions in past years. The results will help you decide how hot, cold, wet, or windy it might be!

Date:

Astronomy

Dec. 19, 2013 Rise Set
Actual Time 7:01 AM CST 4:34 PM CST
Civil Twilight 6:32 AM CST 5:03 PM CST
Nautical Twilight 5:59 AM CST 5:36 PM CST
Astronomical Twilight 5:27 AM CST 6:08 PM CST
Moon 6:57 PM CST (12/19) 8:22 AM CST (12/19)
Length of Visible Light 10h 31m
Length of Day
9h 32m
Waning Gibbous, 95% of the Moon is Illuminated
Dec 19
Waning Gibbous
Dec 25
Last Quarter
Jan 1
New
Jan 7
First Quarter
Jan 15
Full

Hourly Weather History & Observations

Time (CST) Temp. Windchill Dew Point Humidity Pressure Visibility Wind Dir Wind Speed Gust Speed Precip Events Conditions
12:15 AM 41.0 °F 34.7 °F 26.6 °F 57% 30.06 in 10.0 mi SSW 10.4 mph - N/A   Clear
12:35 AM 39.2 °F 34.2 °F 26.6 °F 61% 30.06 in 10.0 mi SSW 6.9 mph - N/A   Clear
12:55 AM 39.2 °F 33.0 °F 26.6 °F 61% 30.05 in 10.0 mi South 9.2 mph - N/A   Clear
1:15 AM 39.2 °F 32.5 °F 26.6 °F 61% 30.06 in 10.0 mi SSW 10.4 mph - N/A   Clear
1:35 AM 42.8 °F 37.0 °F 28.4 °F 57% 30.06 in 10.0 mi SSW 10.4 mph - N/A   Clear
1:55 AM 42.8 °F 37.0 °F 28.4 °F 57% 30.07 in 10.0 mi SSW 10.4 mph - N/A   Clear
2:15 AM 42.8 °F 36.6 °F 30.2 °F 61% 30.07 in 10.0 mi SSW 11.5 mph - N/A   Clear
2:35 AM 44.6 °F 38.8 °F 30.2 °F 57% 30.07 in 10.0 mi SSW 11.5 mph - N/A   Clear
2:55 AM 44.6 °F 38.8 °F 30.2 °F 57% 30.07 in 10.0 mi SSW 11.5 mph - N/A   Clear
3:15 AM 44.6 °F 39.2 °F 30.2 °F 57% 30.07 in 10.0 mi SSW 10.4 mph - N/A   Clear
3:35 AM 44.6 °F 39.2 °F 32.0 °F 61% 30.07 in 10.0 mi SSW 10.4 mph - N/A   Clear
3:55 AM 44.6 °F 38.8 °F 32.0 °F 61% 30.06 in 10.0 mi SSW 11.5 mph - N/A   Clear
4:15 AM 44.6 °F 38.8 °F 32.0 °F 61% 30.06 in 10.0 mi SSW 11.5 mph - N/A   Clear
4:35 AM 44.6 °F 38.8 °F 32.0 °F 61% 30.07 in 10.0 mi SSW 11.5 mph 16.1 mph N/A   Clear
4:55 AM 44.6 °F 39.2 °F 32.0 °F 61% 30.07 in 10.0 mi SSW 10.4 mph - N/A   Clear
5:15 AM 42.8 °F 37.5 °F 32.0 °F 66% 30.07 in 10.0 mi SSW 9.2 mph - N/A   Clear
5:35 AM 42.8 °F 37.5 °F 32.0 °F 66% 30.07 in 10.0 mi SSW 9.2 mph - N/A   Clear
5:55 AM 42.8 °F 37.0 °F 33.8 °F 70% 30.07 in 10.0 mi SSW 10.4 mph - N/A   Clear
6:15 AM 42.8 °F 37.0 °F 33.8 °F 70% 30.07 in 10.0 mi SSW 10.4 mph - N/A   Clear
6:35 AM 42.8 °F 38.6 °F 33.8 °F 70% 30.07 in 10.0 mi South 6.9 mph - N/A   Clear
6:55 AM 42.8 °F 38.6 °F 32.0 °F 66% 30.08 in 10.0 mi South 6.9 mph - N/A   Clear
7:15 AM 42.8 °F 38.0 °F 33.8 °F 70% 30.08 in 10.0 mi SSW 8.1 mph - N/A   Clear
7:35 AM 42.8 °F 37.5 °F 33.8 °F 70% 30.08 in 10.0 mi SSW 9.2 mph - N/A   Clear
7:55 AM 44.6 °F 38.4 °F 35.6 °F 71% 30.08 in 10.0 mi SSW 12.7 mph - N/A   Clear
8:15 AM 46.4 °F 41.1 °F 35.6 °F 66% 30.08 in 10.0 mi SSW 11.5 mph - N/A   Clear
8:35 AM 48.2 °F - 35.6 °F 62% 30.08 in 10.0 mi SSW 12.7 mph 20.7 mph N/A   Clear
8:55 AM 48.2 °F - 37.4 °F 66% 30.09 in 10.0 mi SSW 16.1 mph 20.7 mph N/A   Clear
9:15 AM 51.8 °F - 37.4 °F 58% 30.08 in 10.0 mi SSW 15.0 mph - N/A   Clear
9:35 AM 51.8 °F - 37.4 °F 58% 30.09 in 10.0 mi SSW 12.7 mph - N/A   Clear
9:55 AM 53.6 °F - 37.4 °F 54% 30.09 in 10.0 mi SSW 16.1 mph 23.0 mph N/A   Clear
10:15 AM 53.6 °F - 39.2 °F 58% 30.09 in 10.0 mi SSW 17.3 mph 24.2 mph N/A   Clear
10:35 AM 53.6 °F - 39.2 °F 58% 30.08 in 10.0 mi SSW 20.7 mph 26.5 mph N/A   Clear
10:55 AM 55.4 °F - 39.2 °F 54% 30.07 in 10.0 mi SSW 13.8 mph 25.3 mph N/A   Clear
11:15 AM 55.4 °F - 41.0 °F 58% 30.06 in 10.0 mi SSW 13.8 mph 24.2 mph N/A   Clear
11:35 AM 55.4 °F - 42.8 °F 63% 30.05 in 10.0 mi SSW 17.3 mph 25.3 mph N/A   Clear
11:55 AM 55.4 °F - 42.8 °F 63% 30.04 in 10.0 mi SSW 17.3 mph 26.5 mph N/A   Scattered Clouds
12:15 PM 57.2 °F - 42.8 °F 59% 30.03 in 10.0 mi SSW 19.6 mph 24.2 mph N/A   Partly Cloudy
12:35 PM 55.4 °F - 42.8 °F 63% 30.03 in 10.0 mi SSW 18.4 mph 24.2 mph N/A   Clear
12:55 PM 57.2 °F - 42.8 °F 59% 30.02 in 10.0 mi SSW 18.4 mph 24.2 mph N/A   Partly Cloudy
1:15 PM 59.0 °F - 44.6 °F 59% 30.01 in 10.0 mi SSW 13.8 mph 21.9 mph N/A   Scattered Clouds
1:35 PM 59.0 °F - 44.6 °F 59% 30.01 in 10.0 mi SSW 17.3 mph 24.2 mph N/A   Mostly Cloudy
1:55 PM 59.0 °F - 44.6 °F 59% 30.01 in 10.0 mi SW 21.9 mph 26.5 mph N/A   Overcast
2:15 PM 59.0 °F - 44.6 °F 59% 30.00 in 10.0 mi SSW 16.1 mph - N/A   Overcast
2:35 PM 57.2 °F - 44.6 °F 63% 30.01 in 10.0 mi SSW 17.3 mph 21.9 mph N/A   Mostly Cloudy
2:55 PM 57.2 °F - 44.6 °F 63% 30.01 in 10.0 mi SSW 15.0 mph - N/A   Mostly Cloudy
3:15 PM 57.2 °F - 42.8 °F 59% 30.00 in 10.0 mi SSW 12.7 mph 23.0 mph N/A   Overcast
3:35 PM 55.4 °F - 42.8 °F 63% 29.99 in 10.0 mi South 13.8 mph 20.7 mph N/A   Mostly Cloudy
3:55 PM 55.4 °F - 41.0 °F 58% 29.98 in 10.0 mi SSW 11.5 mph 19.6 mph N/A   Partly Cloudy
4:15 PM 55.4 °F - 39.2 °F 54% 29.98 in 10.0 mi South 10.4 mph - N/A   Clear
4:35 PM 53.6 °F - 39.2 °F 58% 29.97 in 10.0 mi South 9.2 mph - N/A   Clear
4:55 PM 53.6 °F - 39.2 °F 58% 29.97 in 10.0 mi South 8.1 mph - N/A   Scattered Clouds
5:15 PM 53.6 °F - 41.0 °F 62% 29.96 in 10.0 mi South 8.1 mph - N/A   Scattered Clouds
5:35 PM 53.6 °F - 42.8 °F 67% 29.96 in 10.0 mi South 9.2 mph - N/A   Clear
5:55 PM 53.6 °F - 42.8 °F 67% 29.95 in 10.0 mi South 10.4 mph - N/A   Clear
6:15 PM 53.6 °F - 42.8 °F 67% 29.96 in 10.0 mi South 10.4 mph - N/A   Clear
6:35 PM 53.6 °F - 42.8 °F 67% 29.96 in 10.0 mi South 9.2 mph - N/A   Clear
6:55 PM 53.6 °F - 42.8 °F 67% 29.96 in 10.0 mi South 11.5 mph - N/A   Scattered Clouds
7:15 PM 53.6 °F - 44.6 °F 72% 29.96 in 10.0 mi South 10.4 mph - N/A   Overcast
7:35 PM 53.6 °F - 44.6 °F 72% 29.95 in 10.0 mi South 8.1 mph - N/A   Overcast
7:55 PM 53.6 °F - 44.6 °F 72% 29.95 in 10.0 mi South 6.9 mph - N/A   Overcast
8:15 PM 53.6 °F - 44.6 °F 72% 29.95 in 10.0 mi South 8.1 mph - N/A   Overcast
8:35 PM 53.6 °F - 44.6 °F 72% 29.95 in 10.0 mi South 9.2 mph - N/A   Overcast
8:55 PM 55.4 °F - 44.6 °F 67% 29.94 in 10.0 mi South 10.4 mph - N/A   Overcast
9:15 PM 55.4 °F - 44.6 °F 67% 29.94 in 10.0 mi South 10.4 mph - N/A   Overcast
9:35 PM 55.4 °F - 44.6 °F 67% 29.93 in 10.0 mi South 11.5 mph - N/A   Overcast
9:55 PM 55.4 °F - 44.6 °F 67% 29.93 in 10.0 mi South 10.4 mph - N/A   Overcast
10:15 PM 55.4 °F - 44.6 °F 67% 29.93 in 10.0 mi South 10.4 mph - N/A   Overcast
10:35 PM 55.4 °F - 44.6 °F 67% 29.93 in 10.0 mi South 11.5 mph 17.3 mph N/A   Overcast
10:55 PM 55.4 °F - 44.6 °F 67% 29.93 in 10.0 mi South 12.7 mph - N/A   Overcast
11:15 PM 57.2 °F - 44.6 °F 63% 29.93 in 10.0 mi South 11.5 mph 20.7 mph N/A   Overcast
11:35 PM 55.4 °F - 44.6 °F 67% 29.92 in 10.0 mi South 13.8 mph 18.4 mph N/A   Overcast
11:55 PM 55.4 °F - 44.6 °F 67% 29.92 in 10.0 mi South 12.7 mph 18.4 mph N/A   Overcast